Weather History for Jacksonville, IL

Change the Weather History Date:

Saturday, June 15, 2013

  Actual Average (KSPI) Record (KSPI)
Temperature  
Mean Temperature 76 °F 73 °F  
Max Temperature 85 °F 83 °F 100 °F (1987)
Min Temperature 66 °F 62 °F 46 °F (1917)
Degree Days  
Heating Degree Days 0 0  
Month to date heating degree days 11  
Since 1 June heating degree days 11  
Since 1 July heating degree days 5481  
Cooling Degree Days 10 8  
Month to date cooling degree days 97  
Year to date cooling degree days 201  
Since 1 June cooling degree days 97  
Growing Degree Days 26 (Base 50)    
Moisture  
Dew Point 64 °F    
Average Humidity 74    
Maximum Humidity 97    
Minimum Humidity 50    
Precipitation  
Precipitation 0.00 in 0.15 in 2.54 in (1921)
Month to date precipitation 2.31  
Year to date precipitation 16.32  
Snow  
Snow 0.00 in 0.00 in 0.00 in ()
Month to date snowfall 0.0  
Since 1 June snowfall 0.0  
Since 1 July snowfall 20.9  
Snow Depth -    
Sea Level Pressure  
Sea Level Pressure 30.01 in    
Wind  
Wind Speed 7 mph (SSE)    
Max Wind Speed 24 mph    
Max Gust Speed 36 mph    
Visibility 10 miles    
Events Rain , Thunderstorm    
T = Trace of Precipitation, MM = Missing Value Source: NWS Daily Summary

Daily Weather History Graph

Daily Weather History Graph

Search for Another Location

Airport:

Trip Planner

Search our weather history database for the weather conditions in past years. The results will help you decide how hot, cold, wet, or windy it might be!

Date:

Astronomy

Jun. 15, 2013 Rise Set
Actual Time 5:32 AM CDT 8:30 PM CDT
Civil Twilight 4:59 AM CDT 9:03 PM CDT
Nautical Twilight 4:18 AM CDT 9:44 PM CDT
Astronomical Twilight 3:30 AM CDT 10:33 PM CDT
Moon 12:06 PM CDT (6/15) 12:07 AM CDT (6/15)
Length of Visible Light 16h 03m
Length of Day
14h 58m
Waxing Crescent, 40% of the Moon is Illuminated
Jun 15
Waxing Crescent
Jun 16
First Quarter
Jun 23
Full
Jun 29
Last Quarter
Jul 8
New

Hourly Weather History & Observations

Time (CDT) Temp. Heat Index Dew Point Humidity Pressure Visibility Wind Dir Wind Speed Gust Speed Precip Events Conditions
12:15 AM 70.0 °F - 61.0 °F 73% 30.00 in 10.0 mi East 4.6 mph - N/A   Clear
12:35 AM 69.8 °F - 61.0 °F 73% 30.03 in 10.0 mi Calm Calm - N/A   Clear
12:55 AM 68.9 °F - 61.2 °F 76% 30.02 in 10.0 mi Calm Calm - N/A   Clear
1:15 AM 68.0 °F - 60.8 °F 78% 30.03 in 10.0 mi Calm Calm - N/A   Clear
1:35 AM 67.8 °F - 60.8 °F 78% 30.04 in 10.0 mi Calm Calm - N/A   Clear
1:55 AM 68.5 °F - 60.8 °F 76% 30.02 in 10.0 mi SSE 6.9 mph - N/A   Clear
2:15 AM 70.2 °F - 59.9 °F 70% 30.02 in 10.0 mi South 5.8 mph - N/A   Clear
2:35 AM 70.9 °F - 59.2 °F 66% 30.02 in 10.0 mi SSE 4.6 mph - N/A   Clear
2:55 AM 71.4 °F - 58.6 °F 64% 30.02 in 10.0 mi SSE 6.9 mph - N/A   Clear
3:15 AM 71.6 °F - 58.1 °F 62% 30.02 in 10.0 mi South 5.8 mph - N/A   Clear
3:35 AM 71.6 °F - 58.1 °F 62% 30.02 in 10.0 mi South 6.9 mph - N/A   Clear
3:55 AM 71.2 °F - 58.3 °F 64% 30.06 in 10.0 mi WSW 5.8 mph - N/A   Scattered Clouds
4:15 AM 69.6 °F - 60.8 °F 73% 30.09 in 10.0 mi West 3.5 mph - N/A Rain Rain
4:35 AM 68.9 °F - 61.5 °F 77% 30.09 in 10.0 mi Calm Calm - N/A   Scattered Clouds
4:55 AM 69.4 °F - 60.8 °F 74% 30.08 in 10.0 mi Calm Calm - N/A Thunderstorm Mostly Cloudy
5:15 AM 68.0 °F - 63.3 °F 85% 30.08 in 10.0 mi Calm Calm - N/A Rain Rain
5:35 AM 67.5 °F - 63.3 °F 87% 30.07 in 5.0 mi SSE 5.8 mph - N/A Rain Rain
5:55 AM 66.7 °F - 63.3 °F 89% 30.01 in 10.0 mi SE 10.4 mph - N/A   Scattered Clouds
6:15 AM 67.1 °F - 63.5 °F 88% 29.98 in 10.0 mi SE 11.5 mph - N/A   Clear
6:35 AM 67.3 °F - 63.7 °F 88% 29.94 in 10.0 mi SE 19.6 mph 25.3 mph N/A Rain Light Rain
6:55 AM 68.2 °F - 64.4 °F 88% 29.95 in 10.0 mi South 3.5 mph 9.2 mph N/A   Clear
7:15 AM 69.4 °F - 64.4 °F 84% 29.96 in 10.0 mi South 6.9 mph - N/A   Clear
7:35 AM 70.7 °F - 63.7 °F 78% 29.97 in 10.0 mi South 8.1 mph - N/A   Clear
7:55 AM 70.7 °F - 63.3 °F 77% 29.98 in 10.0 mi South 10.4 mph - N/A   Clear
8:15 AM 70.7 °F - 63.0 °F 76% 30.01 in 10.0 mi South 9.2 mph - N/A   Clear
8:35 AM 69.8 °F - 63.0 °F 79% 30.00 in 10.0 mi South 11.5 mph - N/A Rain Light Rain
8:55 AM 70.3 °F - 62.6 °F 76% 30.02 in 10.0 mi South 11.5 mph - N/A Thunderstorm Mostly Cloudy
9:15 AM 70.7 °F - 62.4 °F 75% 30.02 in 10.0 mi SE 3.5 mph - N/A   Mostly Cloudy
9:35 AM 71.2 °F - 63.0 °F 75% 30.00 in 10.0 mi SSE 10.4 mph - N/A   Scattered Clouds
9:55 AM 72.9 °F - 63.0 °F 71% 30.00 in 10.0 mi South 12.7 mph 18.4 mph N/A   Scattered Clouds
10:15 AM 73.4 °F - 63.3 °F 71% 30.02 in 10.0 mi SSW 5.8 mph - N/A Thunderstorm Thunderstorm
10:35 AM 70.3 °F - 64.4 °F 81% 30.06 in 10.0 mi NNE 10.4 mph - N/A   Overcast
10:55 AM 70.3 °F - 64.6 °F 82% 30.05 in 10.0 mi NE 9.2 mph - N/A Thunderstorm Overcast
11:15 AM 70.7 °F - 65.1 °F 82% 30.02 in 10.0 mi ESE 6.9 mph - N/A Rain Light Rain
11:35 AM 72.3 °F - 65.5 °F 79% 30.01 in 10.0 mi SE 8.1 mph - N/A   Clear
11:55 AM 75.2 °F - 66.4 °F 74% 30.00 in 10.0 mi SE 9.2 mph - N/A Thunderstorm Scattered Clouds
12:15 PM 77.7 °F - 65.8 °F 67% 30.00 in 10.0 mi SSE 6.9 mph - N/A Thunderstorm Mostly Cloudy
12:35 PM 77.7 °F - 64.9 °F 65% 30.02 in 10.0 mi NE 9.2 mph 16.1 mph N/A   Overcast
12:55 PM 76.3 °F - 66.9 °F 73% 30.01 in 10.0 mi ESE 10.4 mph - N/A Thunderstorm Mostly Cloudy
1:15 PM 79.5 °F - 66.4 °F 64% 30.00 in 10.0 mi ESE 10.4 mph - N/A Thunderstorm Clear
1:35 PM 76.8 °F - 66.4 °F 70% 30.04 in 10.0 mi NNE 18.4 mph 24.2 mph N/A Thunderstorm Scattered Clouds
1:55 PM 75.4 °F - 66.4 °F 73% 30.03 in 10.0 mi ENE 17.3 mph 23.0 mph N/A Thunderstorm Scattered Clouds
2:15 PM 79.2 °F - 66.2 °F 64% 30.01 in 10.0 mi East 20.7 mph - N/A   Clear
2:35 PM 81.1 °F 82.9 °F 65.1 °F 58% 30.00 in 10.0 mi ESE 18.4 mph - N/A   Clear
2:55 PM 82.8 °F 84.2 °F 64.0 °F 53% 30.00 in 10.0 mi SE 13.8 mph 20.7 mph N/A   Clear
3:15 PM 83.8 °F 85.1 °F 64.2 °F 51% 29.98 in 10.0 mi SE 15.0 mph - N/A   Clear
3:35 PM 83.7 °F 84.9 °F 64.0 °F 51% 29.98 in 10.0 mi SE 13.8 mph 18.4 mph N/A   Clear
3:55 PM 85.1 °F 86.6 °F 64.8 °F 50% 29.96 in 10.0 mi SSE 12.7 mph 19.6 mph N/A   Clear
4:15 PM 84.6 °F 86.1 °F 64.6 °F 51% 29.95 in 10.0 mi SE 13.8 mph - N/A   Clear
4:35 PM 84.0 °F 85.6 °F 64.6 °F 52% 29.94 in 10.0 mi SSE 13.8 mph 18.4 mph N/A   Clear
4:55 PM 84.2 °F 85.8 °F 64.8 °F 52% 29.94 in 10.0 mi SE 11.5 mph - N/A   Clear
5:15 PM 83.5 °F 85.1 °F 64.9 °F 53% 29.93 in 10.0 mi SSE 12.7 mph - N/A   Clear
5:35 PM 83.3 °F 85.1 °F 65.1 °F 54% 29.92 in 10.0 mi SSE 10.4 mph - N/A   Clear
5:55 PM 82.9 °F 84.8 °F 65.1 °F 55% 29.91 in 10.0 mi SSE 12.7 mph - N/A   Clear
6:15 PM 82.8 °F 84.7 °F 65.5 °F 56% 29.92 in 10.0 mi SSE 11.5 mph - N/A   Clear
6:35 PM 82.2 °F 84.4 °F 66.0 °F 58% 29.93 in 10.0 mi SSE 8.1 mph - N/A   Clear
6:55 PM 82.4 °F 84.4 °F 66.0 °F 57% 29.94 in 10.0 mi South 6.9 mph - N/A Thunderstorm Clear
7:15 PM 81.1 °F 83.9 °F 67.8 °F 64% 29.95 in 10.0 mi SSW 5.8 mph - N/A Rain , Thunderstorm Light Thunderstorms and Rain
7:35 PM 79.3 °F - 68.9 °F 70% 29.95 in 10.0 mi South 4.6 mph - N/A Rain , Thunderstorm Light Thunderstorms and Rain
7:55 PM 78.3 °F - 69.4 °F 74% 29.96 in 10.0 mi WSW 3.5 mph - N/A Rain , Thunderstorm Thunderstorms and Rain
8:15 PM 68.4 °F - 65.1 °F 89% 30.00 in 2.0 mi NW 24.2 mph 35.7 mph N/A Rain , Thunderstorm Heavy Thunderstorms and Rain
8:35 PM 68.4 °F - 66.7 °F 95% 30.06 in 1.5 mi West 12.7 mph 23.0 mph N/A Rain , Thunderstorm Heavy Thunderstorms and Rain
8:55 PM 66.6 °F - 65.3 °F 96% 30.07 in 5.0 mi WNW 10.4 mph - N/A Rain , Thunderstorm Heavy Thunderstorms and Rain
9:15 PM 66.6 °F - 65.5 °F 96% 30.08 in 5.0 mi WNW 10.4 mph - N/A Rain , Thunderstorm Thunderstorms and Rain
9:35 PM 67.1 °F - 65.8 °F 96% 30.05 in 10.0 mi NNW 8.1 mph - N/A Rain Rain
9:55 PM 67.1 °F - 66.2 °F 97% 30.05 in 10.0 mi NW 3.5 mph - N/A Rain Light Rain
10:15 PM 67.3 °F - 66.2 °F 96% 30.06 in 10.0 mi NW 3.5 mph - N/A Rain Light Rain
10:35 PM 67.3 °F - 66.2 °F 96% 30.06 in 10.0 mi NNW 4.6 mph - N/A Rain Light Rain
10:55 PM 67.3 °F - 66.2 °F 96% 30.05 in 10.0 mi North 9.2 mph - N/A Rain Light Rain
11:15 PM 67.1 °F - 66.0 °F 96% 30.05 in 10.0 mi North 5.8 mph - N/A Rain Light Rain
11:35 PM 67.5 °F - 65.7 °F 94% 30.02 in 10.0 mi NE 8.1 mph - N/A Rain Light Rain
11:55 PM 67.5 °F - 65.5 °F 93% 30.03 in 10.0 mi Calm Calm - N/A Rain Light Rain